| time (UTC) | temp C | wind direction | speed KPH | gust KPH | rain 1hr cm | rain 24hr cm | rain mn cm | humidity % | barometer mb |
| 20260510123533 | 22 | 136 | 6.4 | 11.3 | 0.00 | 0.00 | 0.00 | 92 | 1013.2 |
| 20260510123021 | 21 | 157 | 4.8 | 6.4 | 0.00 | 0.00 | 0.00 | 93 | 1013.2 |
| 20260510122528 | 21 | 148 | 6.4 | 8.0 | 0.00 | 0.00 | 0.00 | 94 | 1012.8 |
| 20260510122016 | 21 | 163 | 6.4 | 11.3 | 0.00 | 0.00 | 0.00 | 95 | 1012.7 |
| 20260510121523 | 20 | 154 | 6.4 | 9.7 | 0.00 | 0.00 | 0.00 | 96 | 1012.7 |
| 20260510121029 | 20 | 148 | 6.4 | 9.7 | 0.00 | 0.00 | 0.00 | 97 | 1012.7 |
| 20260510120517 | 20 | 180 | 6.4 | 8.0 | 0.00 | 0.00 | 0.00 | 98 | 1012.7 |
| 20260510120024 | 20 | 175 | 6.4 | 8.0 | 0.00 | 0.00 | 0.00 | 98 | 1012.7 |
| 20260510115531 | 20 | 171 | 6.4 | 9.7 | 0.00 | 0.00 | 0.00 | 98 | 1012.7 |
| 20260510115019 | 20 | 172 | 6.4 | 8.0 | 0.00 | 0.00 | 0.00 | 98 | 1012.6 |
| 20260510114526 | 20 | 154 | 4.8 | 8.0 | 0.00 | 0.00 | 0.00 | 98 | 1012.6 |
| 20260510114032 | 20 | 192 | 6.4 | 9.7 | 0.00 | 0.00 | 0.00 | 98 | 1012.6 |
| 20260510113521 | 20 | 175 | 4.8 | 8.0 | 0.00 | 0.00 | 0.00 | 98 | 1012.6 |
| 20260510113027 | 20 | 205 | 4.8 | 9.7 | 0.00 | 0.00 | 0.00 | 98 | 1012.6 |
| 20260510112515 | 20 | 190 | 4.8 | 9.7 | 0.00 | 0.00 | 0.00 | 98 | 1012.6 |
| 20260510112042 | 20 | 203 | 4.8 | 8.0 | 0.00 | 0.00 | 0.00 | 98 | 1012.6 |
| 20260510111529 | 20 | 180 | 4.8 | 8.0 | 0.00 | 0.00 | 0.00 | 98 | 1012.6 |
| 20260510111017 | 20 | 185 | 4.8 | 6.4 | 0.00 | 0.00 | 0.00 | 98 | 1012.7 |
| 20260510110524 | 20 | 189 | 3.2 | 4.8 | 0.00 | 0.00 | 0.00 | 97 | 1012.7 |
| 20260510110030 | 20 | 167 | 3.2 | 4.8 | 0.00 | 0.00 | 0.00 | 97 | 1012.4 |
| 20260510105519 | 20 | 213 | 3.2 | 8.0 | 0.00 | 0.00 | 0.00 | 97 | 1012.4 |
| 20260510105025 | 20 | 192 | 3.2 | 4.8 | 0.00 | 0.00 | 0.00 | 97 | 1012.3 |
| 20260510104532 | 20 | 216 | 1.6 | 4.8 | 0.00 | 0.00 | 0.00 | 96 | 1012.2 |
| 20260510104020 | 20 | 196 | 4.8 | 6.4 | 0.00 | 0.00 | 0.00 | 96 | 1012.2 |
| 20260510103527 | 20 | 201 | 3.2 | 4.8 | 0.00 | 0.00 | 0.00 | 96 | 1012.2 |
| 20260510103033 | 20 | 185 | 4.8 | 8.0 | 0.00 | 0.00 | 0.00 | 96 | 1012.2 |
| 20260510102522 | 20 | 203 | 3.2 | 4.8 | 0.00 | 0.00 | 0.00 | 96 | 1012.2 |
| 20260510102028 | 20 | 206 | 3.2 | 4.8 | 0.00 | 0.00 | 0.00 | 95 | 1012.2 |
| 20260510101517 | 21 | 220 | 1.6 | 4.8 | 0.00 | 0.00 | 0.00 | 94 | 1012.1 |
| 20260510101023 | 21 | 194 | 3.2 | 4.8 | 0.00 | 0.00 | 0.00 | 94 | 1011.8 |
| 20260510100530 | 21 | 181 | 4.8 | 9.7 | 0.00 | 0.00 | 0.00 | 93 | 1011.8 |
| 20260510100018 | 21 | 203 | 6.4 | 9.7 | 0.00 | 0.00 | 0.00 | 93 | 1011.8 |
| 20260510095525 | 21 | 207 | 6.4 | 11.3 | 0.00 | 0.00 | 0.00 | 93 | 1011.8 |
| 20260510095032 | 21 | 210 | 4.8 | 9.7 | 0.00 | 0.00 | 0.00 | 93 | 1011.8 |
| 20260510094520 | 21 | 175 | 4.8 | 6.4 | 0.00 | 0.00 | 0.00 | 93 | 1011.8 |
| 20260510094027 | 21 | 203 | 6.4 | 8.0 | 0.00 | 0.00 | 0.00 | 93 | 1011.8 |
| 20260510093533 | 21 | 195 | 6.4 | 9.7 | 0.00 | 0.00 | 0.00 | 93 | 1011.8 |
| 20260510093041 | 21 | 223 | 4.8 | 6.4 | 0.00 | 0.00 | 0.00 | 92 | 1011.8 |
| 20260510092528 | 21 | 201 | 6.4 | 11.3 | 0.00 | 0.00 | 0.00 | 92 | 1011.8 |
| 20260510092016 | 21 | 213 | 6.4 | 9.7 | 0.00 | 0.00 | 0.00 | 92 | 1011.8 |
| 20260510091523 | 21 | 198 | 4.8 | 9.7 | 0.00 | 0.00 | 0.00 | 92 | 1011.8 |
| 20260510091030 | 21 | 210 | 6.4 | 9.7 | 0.00 | 0.00 | 0.00 | 92 | 1011.8 |
| 20260510090518 | 21 | 179 | 6.4 | 9.7 | 0.00 | 0.00 | 0.00 | 91 | 1011.8 |
| 20260510090024 | 21 | 202 | 8.0 | 9.7 | 0.00 | 0.00 | 0.00 | 91 | 1011.7 |
| 20260510085551 | 21 | 177 | 8.0 | 11.3 | 0.00 | 0.00 | 0.00 | 91 | 1011.7 |
| 20260510085020 | 21 | 198 | 6.4 | 9.7 | 0.00 | 0.00 | 0.00 | 91 | 1011.8 |
| 20260510084526 | 21 | 163 | 6.4 | 11.3 | 0.00 | 0.00 | 0.00 | 90 | 1011.9 |
| 20260510084033 | 21 | 161 | 6.4 | 9.7 | 0.00 | 0.00 | 0.00 | 90 | 1011.9 |
| 20260510083521 | 21 | 174 | 6.4 | 8.0 | 0.00 | 0.00 | 0.00 | 90 | 1012.0 |
| 20260510083028 | 22 | 177 | 6.4 | 11.3 | 0.00 | 0.00 | 0.00 | 89 | 1012.0 |
| 20260510082516 | 22 | 194 | 8.0 | 14.5 | 0.00 | 0.00 | 0.00 | 89 | 1012.0 |
| 20260510082023 | 22 | 151 | 8.0 | 11.3 | 0.00 | 0.00 | 0.00 | 88 | 1012.0 |
| 20260510081529 | 22 | 197 | 8.0 | 12.9 | 0.00 | 0.00 | 0.00 | 88 | 1012.0 |
| 20260510081017 | 22 | 156 | 8.0 | 9.7 | 0.00 | 0.00 | 0.00 | 88 | 1012.0 |
| 20260510080524 | 22 | 147 | 9.7 | 12.9 | 0.00 | 0.00 | 0.00 | 87 | 1012.0 |
| 20260510080031 | 22 | 196 | 9.7 | 11.3 | 0.00 | 0.00 | 0.00 | 87 | 1012.4 |
| 20260510075519 | 22 | 196 | 9.7 | 14.5 | 0.00 | 0.00 | 0.00 | 86 | 1012.4 |
| 20260510075046 | 22 | 188 | 9.7 | 12.9 | 0.00 | 0.00 | 0.00 | 86 | 1012.4 |
| 20260510074532 | 22 | 152 | 8.0 | 9.7 | 0.00 | 0.00 | 0.00 | 86 | 1012.4 |
| 20260510074020 | 22 | 167 | 9.7 | 11.3 | 0.00 | 0.00 | 0.00 | 86 | 1012.4 |
| 20260510073527 | 22 | 157 | 8.0 | 11.3 | 0.00 | 0.00 | 0.00 | 86 | 1012.4 |
| 20260510073015 | 22 | 149 | 8.0 | 14.5 | 0.00 | 0.00 | 0.00 | 85 | 1012.4 |
| 20260510072522 | 22 | 163 | 8.0 | 9.7 | 0.00 | 0.00 | 0.00 | 85 | 1012.2 |
| 20260510072029 | 22 | 158 | 9.7 | 14.5 | 0.00 | 0.00 | 0.00 | 84 | 1012.2 |
| 20260510071517 | 22 | 148 | 9.7 | 12.9 | 0.00 | 0.00 | 0.00 | 84 | 1012.2 |
| 20260510071023 | 22 | 186 | 11.3 | 14.5 | 0.00 | 0.00 | 0.00 | 84 | 1012.2 |
| 20260510070530 | 23 | 174 | 9.7 | 12.9 | 0.00 | 0.00 | 0.00 | 83 | 1012.2 |
| 20260510070018 | 23 | 169 | 9.7 | 14.5 | 0.00 | 0.00 | 0.00 | 83 | 1012.2 |
| 20260510065525 | 23 | 160 | 11.3 | 14.5 | 0.00 | 0.00 | 0.00 | 82 | 1012.2 |
| 20260510065032 | 23 | 152 | 9.7 | 14.5 | 0.00 | 0.00 | 0.00 | 82 | 1012.2 |
| 20260510064520 | 23 | 156 | 9.7 | 12.9 | 0.00 | 0.00 | 0.00 | 82 | 1012.2 |
| 20260510064027 | 23 | 167 | 8.0 | 11.3 | 0.00 | 0.00 | 0.00 | 81 | 1012.2 |
| 20260510063533 | 23 | 161 | 8.0 | 11.3 | 0.00 | 0.00 | 0.00 | 81 | 1012.2 |
| 20260510063022 | 23 | 165 | 8.0 | 11.3 | 0.00 | 0.00 | 0.00 | 80 | 1012.2 |
| 20260510062528 | 23 | 164 | 8.0 | 12.9 | 0.00 | 0.00 | 0.00 | 80 | 1012.2 |
| 20260510062016 | 23 | 179 | 9.7 | 14.5 | 0.00 | 0.00 | 0.00 | 80 | 1012.2 |
| 20260510061523 | 23 | 170 | 9.7 | 14.5 | 0.00 | 0.00 | 0.00 | 80 | 1012.2 |
| 20260510061029 | 23 | 188 | 8.0 | 11.3 | 0.00 | 0.00 | 0.00 | 81 | 1012.2 |
| 20260510060518 | 23 | 140 | 8.0 | 11.3 | 0.00 | 0.00 | 0.00 | 81 | 1012.2 |
| 20260510060025 | 23 | 176 | 8.0 | 12.9 | 0.00 | 0.00 | 0.00 | 81 | 1012.0 |
| 20260510055019 | 23 | 164 | 8.0 | 11.3 | 0.00 | 0.00 | 0.00 | 82 | 1012.0 |
| 20260510054526 | 23 | 164 | 6.4 | 9.7 | 0.00 | 0.00 | 0.00 | 82 | 1012.0 |
| 20260510054033 | 23 | 170 | 8.0 | 11.3 | 0.00 | 0.00 | 0.00 | 83 | 1012.0 |
| 20260510053521 | 23 | 160 | 8.0 | 12.9 | 0.00 | 0.00 | 0.00 | 84 | 1012.0 |
| 20260510053027 | 23 | 156 | 6.4 | 9.7 | 0.00 | 0.00 | 0.00 | 85 | 1012.0 |
| 20260510052516 | 23 | 166 | 6.4 | 8.0 | 0.00 | 0.00 | 0.00 | 85 | 1012.1 |
| 20260510052022 | 24 | 176 | 6.4 | 9.7 | 0.00 | 0.00 | 0.00 | 85 | 1012.2 |
| 20260510051529 | 24 | 142 | 8.0 | 12.9 | 0.00 | 0.00 | 0.00 | 85 | 1012.2 |
| 20260510051017 | 24 | 132 | 4.8 | 8.0 | 0.00 | 0.00 | 0.00 | 84 | 1012.2 |
| 20260510050544 | 24 | 138 | 4.8 | 6.4 | 0.00 | 0.00 | 0.00 | 82 | 1012.2 |
| 20260510050030 | 24 | 139 | 4.8 | 8.0 | 0.00 | 0.00 | 0.00 | 82 | 1012.0 |
| 20260510045519 | 24 | 149 | 6.4 | 9.7 | 0.00 | 0.00 | 0.00 | 83 | 1012.0 |
| 20260510045026 | 24 | 148 | 4.8 | 8.0 | 0.00 | 0.00 | 0.00 | 85 | 1012.0 |
| 20260510044532 | 24 | 159 | 4.8 | 6.4 | 0.00 | 0.00 | 0.00 | 86 | 1012.0 |
| 20260510044020 | 24 | 138 | 4.8 | 8.0 | 0.00 | 0.00 | 0.00 | 86 | 1012.0 |
| 20260510043527 | 24 | 176 | 1.6 | 4.8 | 0.00 | 0.00 | 0.00 | 86 | 1012.0 |
| 20260510043015 | 24 | 164 | 3.2 | 4.8 | 0.00 | 0.00 | 0.00 | 86 | 1012.0 |
| 20260510042542 | 24 | 203 | 1.6 | 4.8 | 0.00 | 0.00 | 0.00 | 86 | 1011.9 |
| 20260510042029 | 25 | 152 | 1.6 | 4.8 | 0.00 | 0.00 | 0.00 | 85 | 1011.9 |
| 20260510041537 | 25 | 153 | 1.6 | 4.8 | 0.00 | 0.00 | 0.00 | 85 | 1012.0 |
| 20260510041024 | 25 | 158 | 3.2 | 3.2 | 0.00 | 0.00 | 0.00 | 85 | 1012.0 |
| 20260510040530 | 25 | 159 | 3.2 | 6.4 | 0.00 | 0.00 | 0.00 | 85 | 1012.0 |
| 20260510040018 | 25 | 163 | 4.8 | 6.4 | 0.00 | 0.00 | 0.00 | 85 | 1011.8 |
| 20260510035525 | 25 | 161 | 4.8 | 8.0 | 0.00 | 0.00 | 0.00 | 85 | 1011.8 |
| 20260510035031 | 25 | 161 | 4.8 | 8.0 | 0.00 | 0.00 | 0.00 | 85 | 1011.8 |
| 20260510034520 | 25 | 187 | 4.8 | 6.4 | 0.00 | 0.00 | 0.00 | 85 | 1011.8 |
| 20260510034026 | 25 | 169 | 3.2 | 4.8 | 0.00 | 0.00 | 0.00 | 84 | 1011.8 |
| 20260510033553 | 25 | 169 | 3.2 | 4.8 | 0.00 | 0.00 | 0.00 | 84 | 1011.7 |
| 20260510033043 | 25 | 170 | 4.8 | 6.4 | 0.00 | 0.00 | 0.00 | 83 | 1011.7 |
| 20260510032528 | 26 | 153 | 4.8 | 8.0 | 0.00 | 0.00 | 0.00 | 83 | 1011.7 |
| 20260510032016 | 26 | 146 | 4.8 | 8.0 | 0.00 | 0.00 | 0.00 | 83 | 1011.7 |
| 20260510031523 | 26 | 159 | 4.8 | 6.4 | 0.00 | 0.00 | 0.00 | 82 | 1011.5 |
| 20260510031029 | 26 | 148 | 4.8 | 6.4 | 0.00 | 0.00 | 0.00 | 81 | 1011.4 |
| 20260510030518 | 26 | 155 | 4.8 | 8.0 | 0.00 | 0.00 | 0.00 | 81 | 1011.4 |
| 20260510030024 | 26 | 149 | 6.4 | 8.0 | 0.00 | 0.00 | 0.00 | 80 | 1011.3 |
| 20260510025531 | 26 | 168 | 4.8 | 6.4 | 0.00 | 0.00 | 0.00 | 79 | 1011.3 |
| 20260510025019 | 26 | 161 | 6.4 | 9.7 | 0.00 | 0.00 | 0.00 | 79 | 1011.2 |
| 20260510024526 | 26 | 151 | 6.4 | 11.3 | 0.00 | 0.00 | 0.00 | 78 | 1011.1 |
| 20260510024032 | 26 | 154 | 6.4 | 9.7 | 0.00 | 0.00 | 0.00 | 77 | 1011.1 |
| 20260510023521 | 26 | 172 | 3.2 | 6.4 | 0.00 | 0.00 | 0.00 | 77 | 1010.9 |
| 20260510023028 | 26 | 167 | 3.2 | 6.4 | 0.00 | 0.00 | 0.00 | 76 | 1010.9 |
| 20260510022516 | 26 | 153 | 3.2 | 4.8 | 0.00 | 0.00 | 0.00 | 76 | 1010.7 |
| 20260510022203 | 26 | 174 | 1.6 | 4.8 | 0.00 | 0.00 | 0.00 | 76 | 1010.7 |
| 20260510021529 | 26 | 180 | 0.0 | 1.6 | 0.00 | 0.00 | 0.00 | 75 | 1010.6 |
| 20260510021017 | 27 | 201 | 1.6 | 4.8 | 0.00 | 0.00 | 0.00 | 74 | 1010.5 |
| 20260510020523 | 27 | 167 | 4.8 | 6.4 | 0.00 | 0.00 | 0.00 | 73 | 1010.5 |
| 20260510020031 | 27 | 155 | 4.8 | 6.4 | 0.00 | 0.00 | 0.00 | 73 | 1010.3 |
| 20260510015519 | 27 | 141 | 4.8 | 8.0 | 0.00 | 0.00 | 0.00 | 72 | 1010.3 |
| 20260510015025 | 27 | 157 | 4.8 | 8.0 | 0.00 | 0.00 | 0.00 | 72 | 1010.3 |
| 20260510014532 | 27 | 157 | 6.4 | 9.7 | 0.00 | 0.00 | 0.00 | 71 | 1010.3 |
| 20260510014020 | 27 | 167 | 6.4 | 9.7 | 0.00 | 0.00 | 0.00 | 71 | 1010.3 |
| 20260510013527 | 27 | 166 | 6.4 | 8.0 | 0.00 | 0.00 | 0.00 | 70 | 1010.1 |
| 20260510013033 | 28 | 138 | 6.4 | 8.0 | 0.00 | 0.00 | 0.00 | 69 | 1010.1 |
| 20260510012602 | 28 | 137 | 6.4 | 8.0 | 0.00 | 0.00 | 0.00 | 68 | 1010.1 |
| 20260510012028 | 28 | 139 | 6.4 | 11.3 | 0.00 | 0.00 | 0.00 | 68 | 1010.1 |
| 20260510011517 | 28 | 146 | 6.4 | 9.7 | 0.00 | 0.00 | 0.00 | 67 | 1010.1 |
| 20260510011023 | 28 | 136 | 6.4 | 11.3 | 0.00 | 0.00 | 0.00 | 66 | 1010.0 |
| 20260510010550 | 28 | 128 | 8.0 | 12.9 | 0.00 | 0.00 | 0.00 | 65 | 1010.0 |
| 20260510010058 | 29 | 138 | 8.0 | 11.3 | 0.00 | 0.00 | 0.00 | 64 | 1010.0 |
| 20260510005645 | 29 | 148 | 9.7 | 12.9 | 0.00 | 0.00 | 0.00 | 63 | 1010.0 |
| 20260510005031 | 29 | 139 | 8.0 | 12.9 | 0.00 | 0.00 | 0.00 | 62 | 1009.9 |
| 20260510004520 | 30 | 138 | 8.0 | 11.3 | 0.00 | 0.00 | 0.00 | 61 | 1009.8 |
| 20260510004026 | 30 | 128 | 8.0 | 11.3 | 0.00 | 0.00 | 0.00 | 61 | 1009.8 |
| 20260510003533 | 30 | 133 | 8.0 | 11.3 | 0.00 | 0.00 | 0.00 | 60 | 1009.7 |
| 20260510003041 | 30 | 138 | 8.0 | 9.7 | 0.00 | 0.00 | 0.00 | 59 | 1009.7 |
| 20260510002527 | 30 | 156 | 8.0 | 9.7 | 0.00 | 0.00 | 0.00 | 59 | 1009.6 |
| 20260510002036 | 30 | 155 | 8.0 | 9.7 | 0.00 | 0.00 | 0.00 | 58 | 1009.6 |
| 20260510001543 | 31 | 126 | 9.7 | 12.9 | 0.00 | 0.00 | 0.00 | 57 | 1009.5 |
| 20260510001029 | 31 | 136 | 8.0 | 11.3 | 0.00 | 0.00 | 0.00 | 57 | 1009.5 |
| 20260510000517 | 31 | 116 | 6.4 | 9.7 | 0.00 | 0.00 | 0.00 | 56 | 1009.5 |
| 20260510000024 | 31 | 123 | 6.4 | 9.7 | 0.00 | 0.00 | 0.00 | 55 | 1009.3 |
| 20260509235530 | 31 | 130 | 6.4 | 9.7 | 0.00 | 0.00 | 0.00 | 55 | 1009.3 |
| 20260509235039 | 31 | 143 | 8.0 | 11.3 | 0.00 | 0.00 | 0.00 | 55 | 1009.3 |
| 20260509234525 | 31 | 147 | 9.7 | 12.9 | 0.00 | 0.00 | 0.00 | 55 | 1009.3 |
| 20260509234032 | 31 | 127 | 8.0 | 11.3 | 0.00 | 0.00 | 0.00 | 54 | 1009.3 |
| 20260509233540 | 32 | 148 | 9.7 | 11.3 | 0.00 | 0.00 | 0.00 | 53 | 1009.3 |
| 20260509233047 | 32 | 155 | 8.0 | 11.3 | 0.00 | 0.00 | 0.00 | 53 | 1009.3 |
| 20260509232515 | 32 | 119 | 8.0 | 9.7 | 0.00 | 0.00 | 0.00 | 53 | 1009.2 |
| 20260509232022 | 32 | 144 | 9.7 | 12.9 | 0.00 | 0.00 | 0.00 | 52 | 1009.1 |
| 20260509231528 | 32 | 160 | 8.0 | 12.9 | 0.00 | 0.00 | 0.00 | 52 | 1009.1 |
| 20260509231017 | 32 | 136 | 8.0 | 11.3 | 0.00 | 0.00 | 0.00 | 51 | 1009.1 |
| 20260509230543 | 32 | 140 | 8.0 | 9.7 | 0.00 | 0.00 | 0.00 | 51 | 1009.1 |
| 20260509230030 | 32 | 135 | 8.0 | 9.7 | 0.00 | 0.00 | 0.00 | 50 | 1009.1 |
| 20260509225538 | 32 | 119 | 8.0 | 11.3 | 0.00 | 0.00 | 0.00 | 51 | 1009.1 |
| 20260509225025 | 32 | 137 | 8.0 | 9.7 | 0.00 | 0.00 | 0.00 | 50 | 1009.3 |
| 20260509224532 | 32 | 123 | 8.0 | 9.7 | 0.00 | 0.00 | 0.00 | 51 | 1009.3 |
| 20260509224020 | 32 | 109 | 8.0 | 11.3 | 0.00 | 0.00 | 0.00 | 52 | 1009.3 |
| 20260509223526 | 32 | 132 | 8.0 | 12.9 | 0.00 | 0.00 | 0.00 | 53 | 1009.1 |
| 20260509223033 | 33 | 176 | 4.8 | 9.7 | 0.00 | 0.00 | 0.00 | 55 | 1009.1 |
| 20260509222521 | 33 | 289 | 1.6 | 4.8 | 0.00 | 0.00 | 0.00 | 55 | 1009.2 |
| 20260509222028 | 32 | 109 | 6.4 | 9.7 | 0.00 | 0.00 | 0.00 | 56 | 1009.3 |
| 20260509221536 | 32 | 136 | 4.8 | 8.0 | 0.00 | 0.00 | 0.00 | 55 | 1009.3 |
| 20260509221023 | 33 | 259 | 3.2 | 4.8 | 0.00 | 0.00 | 0.00 | 54 | 1009.3 |
| 20260509220529 | 32 | 356 | 4.8 | 6.4 | 0.00 | 0.00 | 0.00 | 56 | 1009.3 |
| 20260509220017 | 32 | 302 | 1.6 | 8.0 | 0.00 | 0.00 | 0.00 | 56 | 1009.5 |
| 20260509215544 | 32 | 144 | 4.8 | 8.0 | 0.00 | 0.00 | 0.00 | 56 | 1009.5 |
| 20260509215031 | 32 | 26 | 4.8 | 6.4 | 0.00 | 0.00 | 0.00 | 56 | 1009.5 |
| 20260509214519 | 32 | 343 | 4.8 | 8.0 | 0.00 | 0.00 | 0.00 | 56 | 1009.6 |
| 20260509214026 | 32 | 193 | 3.2 | 6.4 | 0.00 | 0.00 | 0.00 | 57 | 1009.6 |
| 20260509213532 | 32 | 86 | 4.8 | 6.4 | 0.00 | 0.00 | 0.00 | 57 | 1009.7 |
| 20260509213021 | 32 | 60 | 4.8 | 8.0 | 0.00 | 0.00 | 0.00 | 58 | 1009.7 |
| 20260509212627 | 31 | 140 | 6.4 | 8.0 | 0.00 | 0.00 | 0.00 | 59 | 1009.8 |
| 20260509212036 | 32 | 136 | 8.0 | 9.7 | 0.00 | 0.00 | 0.00 | 58 | 1009.8 |
| 20260509211542 | 32 | 144 | 6.4 | 9.7 | 0.00 | 0.00 | 0.00 | 57 | 1009.8 |
| 20260509211029 | 31 | 24 | 8.0 | 12.9 | 0.00 | 0.00 | 0.00 | 57 | 1009.8 |
| 20260509210517 | 31 | 36 | 9.7 | 14.5 | 0.00 | 0.00 | 0.00 | 56 | 1009.8 |
| 20260509210024 | 32 | 103 | 9.7 | 12.9 | 0.00 | 0.00 | 0.00 | 56 | 1010.2 |
| 20260509205530 | 32 | 73 | 8.0 | 11.3 | 0.00 | 0.00 | 0.00 | 56 | 1010.2 |
| 20260509205018 | 31 | 117 | 6.4 | 11.3 | 0.00 | 0.00 | 0.00 | 56 | 1010.2 |
| 20260509204525 | 31 | 131 | 6.4 | 9.7 | 0.00 | 0.00 | 0.00 | 57 | 1010.3 |
| 20260509204031 | 31 | 137 | 9.7 | 14.5 | 0.00 | 0.00 | 0.00 | 59 | 1010.3 |
| 20260509203520 | 31 | 121 | 8.0 | 11.3 | 0.00 | 0.00 | 0.00 | 60 | 1010.5 |
| 20260509203026 | 31 | 93 | 6.4 | 11.3 | 0.00 | 0.00 | 0.00 | 58 | 1010.5 |
| 20260509202533 | 31 | 115 | 8.0 | 11.3 | 0.00 | 0.00 | 0.00 | 55 | 1010.7 |
| 20260509202041 | 29 | 144 | 11.3 | 14.5 | 0.00 | 0.00 | 0.00 | 57 | 1010.8 |
| 20260509201528 | 29 | 128 | 12.9 | 16.1 | 0.00 | 0.00 | 0.00 | 58 | 1010.8 |
| 20260509201016 | 30 | 146 | 9.7 | 20.9 | 0.00 | 0.00 | 0.00 | 63 | 1010.9 |
| 20260509200543 | 31 | 356 | 9.7 | 12.9 | 0.00 | 0.00 | 0.00 | 64 | 1010.9 |
| 20260509200030 | 31 | 20 | 9.7 | 12.9 | 0.00 | 0.00 | 0.00 | 63 | 1010.8 |
| 20260509195518 | 31 | 344 | 6.4 | 8.0 | 0.00 | 0.00 | 0.00 | 66 | 1010.8 |
| 20260509195024 | 31 | 4 | 6.4 | 11.3 | 0.00 | 0.00 | 0.00 | 64 | 1010.8 |
| 20260509194551 | 32 | 46 | 8.0 | 14.5 | 0.00 | 0.00 | 0.00 | 61 | 1010.8 |
| 20260509194040 | 32 | 67 | 4.8 | 8.0 | 0.00 | 0.00 | 0.00 | 59 | 1010.8 |
| 20260509193526 | 32 | 283 | 4.8 | 8.0 | 0.00 | 0.00 | 0.00 | 60 | 1010.9 |
| 20260509193033 | 31 | 309 | 6.4 | 12.9 | 0.00 | 0.00 | 0.00 | 60 | 1010.9 |
| 20260509192521 | 31 | 297 | 3.2 | 6.4 | 0.00 | 0.00 | 0.00 | 61 | 1010.9 |
| 20260509192027 | 31 | 313 | 9.7 | 14.5 | 0.00 | 0.00 | 0.00 | 64 | 1010.9 |
| 20260509191516 | 30 | 321 | 8.0 | 12.9 | 0.00 | 0.00 | 0.00 | 66 | 1010.9 |
| 20260509191023 | 31 | 337 | 9.7 | 11.3 | 0.00 | 0.00 | 0.00 | 65 | 1011.0 |
| 20260509190529 | 32 | 325 | 8.0 | 12.9 | 0.00 | 0.00 | 0.00 | 65 | 1011.0 |
| 20260509190017 | 32 | 284 | 6.4 | 11.3 | 0.00 | 0.00 | 0.00 | 60 | 1011.5 |
| 20260509185525 | 32 | 316 | 9.7 | 14.5 | 0.00 | 0.00 | 0.00 | 60 | 1011.5 |
| 20260509185030 | 31 | 305 | 3.2 | 8.0 | 0.00 | 0.00 | 0.00 | 64 | 1011.5 |
| 20260509184519 | 31 | 311 | 6.4 | 8.0 | 0.00 | 0.00 | 0.00 | 64 | 1011.5 |
| 20260509184025 | 32 | 258 | 4.8 | 8.0 | 0.00 | 0.00 | 0.00 | 62 | 1011.6 |
| 20260509183532 | 32 | 272 | 6.4 | 11.3 | 0.00 | 0.00 | 0.00 | 62 | 1011.7 |
| 20260509183020 | 31 | 184 | 1.6 | 4.8 | 0.00 | 0.00 | 0.00 | 65 | 1011.7 |
| 20260509182627 | 31 | 287 | 3.2 | 8.0 | 0.00 | 0.00 | 0.00 | 64 | 1011.7 |
| 20260509182015 | 31 | 277 | 4.8 | 6.4 | 0.00 | 0.00 | 0.00 | 64 | 1011.7 |
| 20260509181522 | 31 | 256 | 6.4 | 8.0 | 0.00 | 0.00 | 0.00 | 64 | 1011.9 |
| 20260509181028 | 30 | 210 | 4.8 | 8.0 | 0.00 | 0.00 | 0.00 | 66 | 1012.2 |
| 20260509180537 | 31 | 240 | 4.8 | 9.7 | 0.00 | 0.00 | 0.00 | 64 | 1012.2 |
| 20260509180023 | 32 | 301 | 4.8 | 11.3 | 0.00 | 0.00 | 0.00 | 64 | 1011.8 |
| 20260509175550 | 32 | 243 | 4.8 | 8.0 | 0.00 | 0.00 | 0.00 | 64 | 1011.8 |
| 20260509175018 | 31 | 301 | 4.8 | 14.5 | 0.00 | 0.00 | 0.00 | 67 | 1012.0 |
| 20260509174526 | 30 | 243 | 6.4 | 11.3 | 0.00 | 0.00 | 0.00 | 69 | 1012.0 |
| 20260509174051 | 30 | 289 | 3.2 | 9.7 | 0.00 | 0.00 | 0.00 | 70 | 1012.1 |
| 20260509173540 | 29 | 214 | 4.8 | 9.7 | 0.00 | 0.00 | 0.00 | 71 | 1012.4 |
| 20260509173026 | 29 | 211 | 4.8 | 8.0 | 0.00 | 0.00 | 0.00 | 72 | 1012.4 |
| 20260509172533 | 29 | 158 | 4.8 | 9.7 | 0.00 | 0.00 | 0.00 | 71 | 1012.6 |
| 20260509172021 | 30 | 226 | 3.2 | 6.4 | 0.00 | 0.00 | 0.00 | 71 | 1012.7 |
| 20260509171528 | 31 | 205 | 3.2 | 6.4 | 0.00 | 0.00 | 0.00 | 69 | 1012.7 |
| 20260509171016 | 30 | 270 | 3.2 | 8.0 | 0.00 | 0.00 | 0.00 | 71 | 1012.7 |
| 20260509170523 | 30 | 211 | 4.8 | 11.3 | 0.00 | 0.00 | 0.00 | 73 | 1012.7 |
| 20260509170050 | 30 | 204 | 6.4 | 9.7 | 0.00 | 0.00 | 0.00 | 75 | 1012.6 |
| 20260509165517 | 30 | 206 | 8.0 | 12.9 | 0.00 | 0.00 | 0.00 | 74 | 1012.6 |
| 20260509165024 | 30 | 265 | 6.4 | 11.3 | 0.00 | 0.00 | 0.00 | 75 | 1012.7 |
| 20260509164531 | 30 | 232 | 6.4 | 11.3 | 0.00 | 0.00 | 0.00 | 74 | 1012.9 |
| 20260509164059 | 29 | 251 | 4.8 | 9.7 | 0.00 | 0.00 | 0.00 | 77 | 1012.9 |
| 20260509163526 | 28 | 224 | 6.4 | 9.7 | 0.00 | 0.00 | 0.00 | 79 | 1012.9 |
| 20260509163033 | 28 | 233 | 6.4 | 11.3 | 0.00 | 0.00 | 0.00 | 79 | 1012.9 |
| 20260509162521 | 28 | 222 | 6.4 | 8.0 | 0.00 | 0.00 | 0.00 | 80 | 1012.7 |
| 20260509162027 | 28 | 214 | 8.0 | 11.3 | 0.00 | 0.00 | 0.00 | 82 | 1012.7 |
| 20260509161516 | 27 | 214 | 9.7 | 16.1 | 0.00 | 0.00 | 0.00 | 84 | 1012.7 |
| 20260509161022 | 27 | 187 | 12.9 | 17.7 | 0.00 | 0.00 | 0.00 | 84 | 1012.7 |
| 20260509160529 | 26 | 219 | 9.7 | 12.9 | 0.00 | 0.00 | 0.00 | 86 | 1012.7 |
| 20260509160018 | 25 | 199 | 12.9 | 16.1 | 0.00 | 0.00 | 0.00 | 88 | 1012.7 |
| 20260509155524 | 26 | 227 | 11.3 | 20.9 | 0.00 | 0.00 | 0.00 | 87 | 1012.7 |
| 20260509155051 | 26 | 216 | 9.7 | 14.5 | 0.00 | 0.00 | 0.00 | 87 | 1012.6 |
| 20260509154518 | 26 | 188 | 12.9 | 19.3 | 0.00 | 0.00 | 0.00 | 85 | 1012.6 |
| 20260509154025 | 27 | 198 | 11.3 | 16.1 | 0.00 | 0.00 | 0.00 | 85 | 1012.5 |
| 20260509153532 | 26 | 187 | 8.0 | 12.9 | 0.00 | 0.00 | 0.00 | 86 | 1012.4 |
| 20260509153020 | 26 | 209 | 11.3 | 16.1 | 0.00 | 0.00 | 0.00 | 86 | 1012.4 |
| 20260509152527 | 27 | 201 | 9.7 | 16.1 | 0.00 | 0.00 | 0.00 | 84 | 1012.1 |
| 20260509152033 | 28 | 196 | 8.0 | 12.9 | 0.00 | 0.00 | 0.00 | 82 | 1012.0 |
| 20260509151522 | 29 | 149 | 6.4 | 9.7 | 0.00 | 0.00 | 0.00 | 78 | 1012.0 |
| 20260509151028 | 30 | 229 | 9.7 | 16.1 | 0.00 | 0.00 | 0.00 | 75 | 1011.9 |
| 20260509150517 | 30 | 210 | 8.0 | 11.3 | 0.00 | 0.00 | 0.00 | 76 | 1011.9 |
| 20260509150023 | 30 | 212 | 4.8 | 8.0 | 0.00 | 0.00 | 0.00 | 75 | 1012.0 |
| 20260509145530 | 30 | 210 | 4.8 | 9.7 | 0.00 | 0.00 | 0.00 | 76 | 1012.0 |
| 20260509145018 | 30 | 192 | 6.4 | 12.9 | 0.00 | 0.00 | 0.00 | 76 | 1012.0 |
| 20260509144545 | 29 | 225 | 4.8 | 8.0 | 0.00 | 0.00 | 0.00 | 77 | 1012.0 |
| 20260509144111 | 30 | 216 | 8.0 | 11.3 | 0.00 | 0.00 | 0.00 | 77 | 1012.0 |
| 20260509143519 | 30 | 211 | 4.8 | 6.4 | 0.00 | 0.00 | 0.00 | 76 | 1011.8 |
| 20260509143026 | 30 | 207 | 3.2 | 6.4 | 0.00 | 0.00 | 0.00 | 76 | 1011.8 |
| 20260509142533 | 30 | 261 | 3.2 | 4.8 | 0.00 | 0.00 | 0.00 | 77 | 1011.7 |
| 20260509142021 | 28 | 188 | 4.8 | 8.0 | 0.00 | 0.00 | 0.00 | 78 | 1011.7 |
| 20260509141528 | 28 | 178 | 3.2 | 6.4 | 0.00 | 0.00 | 0.00 | 80 | 1011.5 |
| 20260509141016 | 27 | 186 | 4.8 | 8.0 | 0.00 | 0.00 | 0.00 | 83 | 1011.1 |
| 20260509140543 | 27 | 201 | 6.4 | 11.3 | 0.00 | 0.00 | 0.00 | 84 | 1011.1 |
| 20260509140029 | 27 | 197 | 4.8 | 8.0 | 0.00 | 0.00 | 0.00 | 86 | 1011.3 |
| 20260509135538 | 26 | 182 | 6.4 | 11.3 | 0.00 | 0.00 | 0.00 | 87 | 1011.3 |
| 20260509135024 | 26 | 205 | 6.4 | 9.7 | 0.00 | 0.00 | 0.00 | 88 | 1011.3 |
| 20260509134530 | 26 | 146 | 6.4 | 9.7 | 0.00 | 0.00 | 0.00 | 90 | 1011.2 |
| 20260509134019 | 25 | 180 | 6.4 | 12.9 | 0.00 | 0.00 | 0.00 | 90 | 1011.2 |
| 20260509133526 | 25 | 181 | 6.4 | 8.0 | 0.00 | 0.00 | 0.00 | 92 | 1011.4 |
| 20260509133032 | 24 | 183 | 6.4 | 11.3 | 0.00 | 0.00 | 0.00 | 94 | 1011.4 |
| 20260509132520 | 24 | 165 | 8.0 | 12.9 | 0.00 | 0.00 | 0.00 | 96 | 1011.5 |
| 20260509132027 | 23 | 210 | 9.7 | 16.1 | 0.00 | 0.00 | 0.00 | 97 | 1011.5 |
| 20260509131515 | 23 | 169 | 8.0 | 11.3 | 0.00 | 0.00 | 0.00 | 97 | 1011.5 |
| 20260509131042 | 23 | 170 | 9.7 | 14.5 | 0.00 | 0.00 | 0.00 | 99 | 1011.4 |
| 20260509130528 | 23 | 184 | 9.7 | 12.9 | 0.00 | 0.00 | 0.00 | 99 | 1011.4 |
| 20260509130037 | 23 | 158 | 8.0 | 11.3 | 0.00 | 0.00 | 0.00 | 99 | 1011.9 |
| 20260509125523 | 22 | 186 | 4.8 | 8.0 | 0.00 | 0.00 | 0.00 | 99 | 1011.9 |
| 20260509125030 | 22 | 187 | 3.2 | 4.8 | 0.00 | 0.00 | 0.00 | 99 | 1011.9 |
| 20260509124558 | 22 | 201 | 1.6 | 3.2 | 0.00 | 0.00 | 0.00 | 99 | 1011.8 |
| 20260509124045 | 22 | 223 | 1.6 | 4.8 | 0.00 | 0.00 | 0.00 | 99 | 1011.9 |